XNO35P EGNX-EDDL

Flight info

Callsign XNO35P
Flight time 1h 0m
Altitude 33000
Route SAPCO UY53 DTY P166 BANTO P155 SIVDA P137 REDFA DCT TACHA DCT PAM P62 PISAP PISAP1A
Aircraft A388/J-SADE2E3FGHIJ3J4J5M1RWXY/LB1D1

Departure

Time 2026-05-04 06:54
Airport East Midlands Airport (EGNX)

Arrival

Time 2026-05-04 07:55
Airport Düsseldorf Airport (EDDL)
Time Latitude Longitude Altitude Speed Heading
2026-05-04 06:25 52.82752 -1.34771 316 ft 0 kts 178°
2026-05-04 06:45 52.82753 -1.34771 319 ft 2 kts 178°
2026-05-04 06:45 52.82778 -1.34771 318 ft 4 kts 179°
2026-05-04 06:46 52.82805 -1.34772 315 ft 4 kts 179°
2026-05-04 06:46 52.82828 -1.34770 317 ft 4 kts 218°
2026-05-04 06:46 52.82832 -1.34742 315 ft 4 kts 282°
2026-05-04 06:46 52.82829 -1.34705 316 ft 1 kts 268°
2026-05-04 06:48 52.82829 -1.34704 316 ft 0 kts 268°
2026-05-04 06:50 52.82823 -1.34951 318 ft 14 kts 268°
2026-05-04 06:51 52.82818 -1.35132 318 ft 18 kts 268°
2026-05-04 06:51 52.82833 -1.35253 317 ft 8 kts 329°
2026-05-04 06:51 52.82869 -1.35248 318 ft 5 kts 38°
2026-05-04 06:51 52.82891 -1.35186 319 ft 8 kts 75°
2026-05-04 06:52 52.82899 -1.35076 321 ft 11 kts 87°
2026-05-04 06:52 52.82920 -1.34958 320 ft 8 kts 28°
2026-05-04 06:52 52.82990 -1.34938 321 ft 11 kts 358°
2026-05-04 06:52 52.83057 -1.34913 318 ft 8 kts 56°
2026-05-04 06:53 52.83063 -1.34810 319 ft 1 kts 90°
2026-05-04 06:54 52.83066 -1.34641 317 ft 53 kts 87°
2026-05-04 06:54 52.83086 -1.33576 316 ft 126 kts 88°
2026-05-04 06:54 52.83094 -1.31892 425 ft 157 kts 86°
2026-05-04 06:54 52.83086 -1.30088 1039 ft 159 kts 88°
2026-05-04 06:55 52.83036 -1.28153 1644 ft 173 kts 90°
2026-05-04 06:55 52.82946 -1.26138 2320 ft 182 kts 92°
2026-05-04 06:55 52.82767 -1.23918 2777 ft 208 kts 103°
2026-05-04 06:55 52.82046 -1.21691 3373 ft 235 kts 127°
2026-05-04 06:56 52.80875 -1.19595 3913 ft 260 kts 136°
2026-05-04 06:57 52.70126 -1.21262 8968 ft 277 kts 227°
2026-05-04 06:58 52.68747 -1.23493 8969 ft 278 kts 224°
2026-05-04 06:58 52.67291 -1.25581 9136 ft 280 kts 221°
2026-05-04 06:58 52.65773 -1.27618 9649 ft 284 kts 220°
2026-05-04 06:58 52.64226 -1.29635 10526 ft 287 kts 220°
2026-05-04 06:59 52.62611 -1.31727 10911 ft 306 kts 219°
2026-05-04 06:59 52.60874 -1.33974 11119 ft 328 kts 219°
2026-05-04 06:59 52.58989 -1.36186 11692 ft 338 kts 207°
2026-05-04 06:59 52.56740 -1.37231 12596 ft 339 kts 186°
2026-05-04 07:01 52.41579 -1.27235 17224 ft 366 kts 159°
2026-05-04 07:01 52.39212 -1.25631 17883 ft 369 kts 160°
2026-05-04 07:02 52.36823 -1.24023 18489 ft 373 kts 160°
2026-05-04 07:02 52.34416 -1.22402 19051 ft 375 kts 160°
2026-05-04 07:02 52.31995 -1.20772 19617 ft 378 kts 160°
2026-05-04 07:02 52.29560 -1.19133 20160 ft 380 kts 160°
2026-05-04 07:03 52.27100 -1.17480 20713 ft 382 kts 160°
2026-05-04 07:03 52.24754 -1.15440 21345 ft 387 kts 146°
2026-05-04 07:03 52.22818 -1.12345 21870 ft 395 kts 129°
2026-05-04 07:03 52.21478 -1.08400 22392 ft 404 kts 113°
2026-05-04 07:04 52.20846 -1.03908 22913 ft 412 kts 97°
2026-05-04 07:04 52.20983 -0.99213 23410 ft 420 kts 81°
2026-05-04 07:04 52.21859 -0.94632 23806 ft 427 kts 69°
2026-05-04 07:04 52.23107 -0.90222 24244 ft 430 kts 66°
2026-05-04 07:05 52.24398 -0.85799 24653 ft 433 kts 68°
2026-05-04 07:05 52.25409 -0.81165 25062 ft 435 kts 75°
2026-05-04 07:05 52.26297 -0.76432 25505 ft 438 kts 75°
2026-05-04 07:05 52.27176 -0.71655 25958 ft 441 kts 75°
2026-05-04 07:06 52.28921 -0.61980 27039 ft 445 kts 75°
2026-05-04 07:06 52.29791 -0.57114 27579 ft 448 kts 75°
2026-05-04 07:06 52.30663 -0.52221 28083 ft 451 kts 75°
2026-05-04 07:07 52.31540 -0.47283 28617 ft 454 kts 75°
2026-05-04 07:08 52.35688 -0.11895 28991 ft 453 kts 92°
2026-05-04 07:09 52.35651 -0.06748 28986 ft 453 kts 92°
2026-05-04 07:09 52.35524 0.03567 29008 ft 456 kts 97°
2026-05-04 07:10 52.34633 0.13848 29013 ft 456 kts 101°
2026-05-04 07:12 52.30956 0.54821 28998 ft 461 kts 102°
2026-05-04 07:12 52.30001 0.65156 28998 ft 462 kts 102°
2026-05-04 07:13 52.29035 0.75522 29007 ft 462 kts 102°
2026-05-04 07:13 52.28060 0.85884 28986 ft 462 kts 102°
2026-05-04 07:14 52.25565 1.11916 28989 ft 467 kts 104°
2026-05-04 07:15 52.24550 1.22361 28990 ft 466 kts 104°
2026-05-04 07:15 52.23523 1.32803 28992 ft 466 kts 104°
2026-05-04 07:16 52.22489 1.43216 28990 ft 466 kts 104°
2026-05-04 07:16 52.21443 1.53662 28988 ft 468 kts 106°
2026-05-04 07:17 52.20383 1.64145 28984 ft 468 kts 106°
2026-05-04 07:17 52.19330 1.74475 28985 ft 468 kts 106°
2026-05-04 07:18 52.18264 1.84823 28987 ft 468 kts 106°
2026-05-04 07:18 52.17179 1.95270 28986 ft 468 kts 106°
2026-05-04 07:19 52.16082 2.05732 28984 ft 470 kts 106°
2026-05-04 07:19 52.14981 2.16147 28988 ft 469 kts 107°
2026-05-04 07:20 52.13864 2.26622 28981 ft 469 kts 107°
2026-05-04 07:20 52.12738 2.37088 28984 ft 469 kts 107°
2026-05-04 07:22 52.16364 2.74484 28967 ft 492 kts 77°
2026-05-04 07:22 52.17368 2.79810 28966 ft 492 kts 77°
2026-05-04 07:23 52.19369 2.90464 28982 ft 492 kts 77°
2026-05-04 07:23 52.21346 3.01046 28974 ft 491 kts 77°
2026-05-04 07:24 52.23326 3.11699 28973 ft 491 kts 77°
2026-05-04 07:24 52.25250 3.22402 28969 ft 493 kts 81°
2026-05-04 07:26 52.27672 3.66451 28973 ft 487 kts 90°
2026-05-04 07:27 52.28182 3.77465 28977 ft 486 kts 90°
2026-05-04 07:27 52.28681 3.88479 28972 ft 486 kts 91°
2026-05-04 07:28 52.29170 3.99495 28972 ft 485 kts 90°
2026-05-04 07:28 52.29649 4.10495 28973 ft 486 kts 90°
2026-05-04 07:29 52.30116 4.21489 28973 ft 486 kts 90°
2026-05-04 07:29 52.30574 4.32492 28970 ft 486 kts 90°
2026-05-04 07:30 52.31021 4.43487 28963 ft 486 kts 91°
2026-05-04 07:30 52.31459 4.54515 28962 ft 485 kts 91°
2026-05-04 07:31 52.31886 4.65517 28957 ft 485 kts 91°
2026-05-04 07:33 52.33261 5.03739 27512 ft 471 kts 94°
2026-05-04 07:33 52.32963 5.08992 27001 ft 458 kts 106°
2026-05-04 07:33 52.32106 5.13926 26527 ft 447 kts 117°
2026-05-04 07:33 52.30822 5.18488 26050 ft 441 kts 121°
2026-05-04 07:34 52.29503 5.23019 25564 ft 440 kts 120°
2026-05-04 07:34 52.28210 5.27531 25106 ft 438 kts 120°
2026-05-04 07:34 52.26926 5.32015 24631 ft 435 kts 120°
2026-05-04 07:34 52.25645 5.36475 24193 ft 432 kts 120°
2026-05-04 07:35 52.24369 5.40896 23751 ft 429 kts 119°
2026-05-04 07:35 52.23100 5.45287 23235 ft 426 kts 120°
2026-05-04 07:35 52.21842 5.49627 22732 ft 420 kts 120°
2026-05-04 07:35 52.20601 5.53897 22217 ft 415 kts 120°
2026-05-04 07:36 52.19366 5.58136 21709 ft 412 kts 120°
2026-05-04 07:36 52.18142 5.62330 21218 ft 409 kts 120°
2026-05-04 07:38 52.09780 5.90817 17926 ft 388 kts 119°
2026-05-04 07:38 52.08620 5.94750 17415 ft 385 kts 119°
2026-05-04 07:38 52.07466 5.98658 16925 ft 381 kts 119°
2026-05-04 07:38 52.06322 6.02522 16424 ft 379 kts 119°
2026-05-04 07:39 52.05183 6.06362 15944 ft 376 kts 119°
2026-05-04 07:39 52.04050 6.10174 15460 ft 373 kts 119°
2026-05-04 07:39 52.02926 6.13954 14971 ft 371 kts 119°
2026-05-04 07:39 52.01807 6.17708 14507 ft 368 kts 119°
2026-05-04 07:40 52.00693 6.21433 14063 ft 365 kts 119°
2026-05-04 07:40 51.99584 6.25129 13588 ft 363 kts 119°
2026-05-04 07:40 51.98481 6.28801 13081 ft 360 kts 119°
2026-05-04 07:40 51.97402 6.32384 12591 ft 357 kts 119°
2026-05-04 07:41 51.96300 6.36044 12079 ft 355 kts 118°
2026-05-04 07:41 51.95217 6.39635 11612 ft 355 kts 119°
2026-05-04 07:41 51.94136 6.43211 11134 ft 352 kts 118°
2026-05-04 07:41 51.93075 6.46710 10669 ft 349 kts 120°
2026-05-04 07:42 51.91653 6.49818 10212 ft 341 kts 140°
2026-05-04 07:42 51.89730 6.51936 9801 ft 330 kts 152°
2026-05-04 07:42 51.87787 6.53794 9335 ft 319 kts 152°
2026-05-04 07:42 51.85925 6.55599 8961 ft 305 kts 151°
2026-05-04 07:43 51.84148 6.57336 8596 ft 293 kts 151°
2026-05-04 07:43 51.82432 6.59019 8237 ft 286 kts 151°
2026-05-04 07:43 51.80740 6.60679 7880 ft 283 kts 151°
2026-05-04 07:43 51.79062 6.62323 7564 ft 282 kts 151°
2026-05-04 07:44 51.77382 6.63969 7252 ft 283 kts 151°
2026-05-04 07:44 51.75711 6.65604 6905 ft 280 kts 150°
2026-05-04 07:44 51.74054 6.67227 6542 ft 277 kts 150°
2026-05-04 07:44 51.72435 6.68811 6219 ft 275 kts 150°
2026-05-04 07:45 51.70784 6.70425 5859 ft 273 kts 150°
2026-05-04 07:45 51.69161 6.72010 5483 ft 272 kts 150°
2026-05-04 07:45 51.67549 6.73583 5150 ft 270 kts 150°
2026-05-04 07:45 51.65943 6.75149 4800 ft 269 kts 150°
2026-05-04 07:46 51.64343 6.76708 4433 ft 267 kts 150°
2026-05-04 07:46 51.62756 6.78252 4079 ft 265 kts 150°
2026-05-04 07:46 51.61183 6.79783 3722 ft 264 kts 150°
2026-05-04 07:46 51.59623 6.81300 3380 ft 262 kts 150°
2026-05-04 07:47 51.58058 6.82812 3065 ft 260 kts 150°
2026-05-04 07:47 51.57032 6.83806 3003 ft 258 kts 150°
2026-05-04 07:47 51.55514 6.85277 3004 ft 256 kts 150°
2026-05-04 07:49 51.46861 6.97958 3019 ft 196 kts 133°
2026-05-04 07:49 51.45991 6.99573 2985 ft 188 kts 134°
2026-05-04 07:49 51.44912 7.00618 3017 ft 182 kts 171°
2026-05-04 07:50 51.43691 7.00346 3026 ft 179 kts 202°
2026-05-04 07:50 51.42533 6.99566 3016 ft 182 kts 203°
2026-05-04 07:50 51.41372 6.98782 3012 ft 178 kts 203°
2026-05-04 07:50 51.40223 6.98016 2945 ft 179 kts 203°
2026-05-04 07:51 51.39073 6.97235 2723 ft 179 kts 206°
2026-05-04 07:51 51.38054 6.96111 2535 ft 172 kts 222°
2026-05-04 07:51 51.37280 6.94760 2502 ft 162 kts 230°
2026-05-04 07:51 51.36592 6.93359 2490 ft 160 kts 232°
2026-05-04 07:52 51.35919 6.91942 2279 ft 159 kts 232°
2026-05-04 07:52 51.35247 6.90527 2072 ft 161 kts 232°
2026-05-04 07:52 51.34576 6.89112 1846 ft 158 kts 232°
2026-05-04 07:52 51.33945 6.87781 1640 ft 142 kts 232°
2026-05-04 07:53 51.33362 6.86554 1448 ft 137 kts 232°
2026-05-04 07:54 51.29378 6.78169 156 ft 134 kts 230°
2026-05-04 07:55 51.28886 6.77142 132 ft 95 kts 232°
2026-05-04 07:55 51.28559 6.76457 123 ft 57 kts 232°
2026-05-04 07:55 51.28411 6.76148 122 ft 31 kts 230°
2026-05-04 07:55 51.28256 6.76004 127 ft 22 kts 203°
2026-05-04 07:56 51.28166 6.75934 127 ft 10 kts 208°
2026-05-04 07:56 51.28097 6.75878 125 ft 13 kts 206°
2026-05-04 07:56 51.27998 6.75828 129 ft 16 kts 181°
2026-05-04 07:56 51.27887 6.75818 132 ft 11 kts 182°
2026-05-04 07:57 51.27868 6.75819 132 ft 3 kts 159°
2026-05-04 07:57 51.27849 6.75858 133 ft 8 kts 104°
2026-05-04 07:57 51.27844 6.76019 132 ft 17 kts 91°
2026-05-04 07:57 51.27843 6.76151 129 ft 7 kts 92°
2026-05-04 07:58 51.27841 6.76166 127 ft 2 kts 112°
2026-05-04 07:58 51.27837 6.76180 130 ft 0 kts 131°
2026-05-04 07:58 51.27828 6.76193 127 ft 7 kts 147°
2026-05-04 07:58 51.27782 6.76221 128 ft 6 kts 162°
2026-05-04 07:59 51.27762 6.76232 131 ft 2 kts 158°
2026-05-04 07:59 51.27756 6.76235 132 ft 0 kts 158°